Regional Weather Roundup
Issued by NWS Upton, NY

Current Version | Previous Version | Text Only | Print | Product List | Glossary Off
Versions: 1 2 3 4 5 6 7 8 9 10 11 12 13 14 15 16 17 18 19 20 21 22 23 24 25 26 27 28 29 30 31 32 33 34 35 36 37 38 39 40 41 42 43 44 45 46 47 48 49 50
000 ASUS41 KOKX 301907 RWROKX REGIONAL WEATHER ROUNDUP NATIONAL WEATHER SERVICE NEW YORK NY 300 PM EDT MON MAR 30 2015 NOTE: "FAIR" INDICATES FEW OR NO CLOUDS BELOW 12,000 FEET WITH NO SIGNIFICANT WEATHER AND/OR OBSTRUCTIONS TO VISIBILITY. NYZ071-072-176-178-NJZ106-104-302000- NEW YORK CITY METRO AREA CITY SKY/WX TMP DP RH WIND PRES REMARKS CENTRAL PARK MOSUNNY 53 27 36 W8G29 29.79F LAGUARDIA APRT PTSUNNY 53 28 38 W22G29 29.76F KENNEDY INTL PTSUNNY 52 31 44 SW12 29.78F NEWARK/LIBERTY PTSUNNY 54 28 36 W21G31 29.78F BRNX BOT. GARD N/A N/A N/A N/A NW15 29.79R TETERBORO PTSUNNY 52 29 41 W12G25 29.76F $$ NYZ177-179-078>081-302000- LONG ISLAND NEW YORK CITY SKY/WX TMP DP RH WIND PRES REMARKS FARMINGDALE CLOUDY 49 31 49 W10G18 29.77F ISLIP PTSUNNY 50 35 56 SW13 29.76F SHIRLEY PTSUNNY 45 36 70 SW13 29.78F WESTHAMPTON PTSUNNY 45 35 68 SW15G22 29.79F MONTAUK POINT N/A 40 34 79 SW13G25 29.79F WCI 32 $$ NYZ052-065-067-302000- HUDSON VALLEY CITY SKY/WX TMP DP RH WIND PRES REMARKS WHITE PLAINS PTSUNNY 50 28 42 W20 29.74F NEWBURGH PTSUNNY 46 34 61 W14G23 29.76 MONTGOMERY CLOUDY 48 28 46 W15G28 29.74S POUGHKEEPSIE CLOUDY 49 28 44 W15G26 29.75S ALBANY CLOUDY 44 26 49 W12G22 29.72S $$ NJZ001-105-106-008-010-013-015-019>022-104-302000- NEW JERSEY CITY SKY/WX TMP DP RH WIND PRES REMARKS NEWARK/LIBERTY PTSUNNY 54 28 36 W21G31 29.78F TETERBORO PTSUNNY 52 29 41 W12G25 29.76F CALDWELL CLOUDY 50 28 42 W13G22 29.78S MORRISTOWN CLOUDY 52 28 40 NW15G23 29.79S SOMERVILLE CLOUDY 52 27 38 W15G29 29.78S SUSSEX CLOUDY 48 27 44 W15G22 29.78R ANDOVER N/A 47 26 44 VRB7G25 29.78S TRENTON PTSUNNY 53 27 36 NW13G23 29.80S MILLVILLE MOSUNNY 58 31 35 W21G31 29.83F ATLANTIC CITY PTSUNNY 57 31 37 W23G30 29.82F WRIGHTSTOWN PTSUNNY 55 28 35 W14G22 29.78F TOMS RIVER PTSUNNY 55 30 38 W15G30 29.80F BELMAR MOSUNNY 54 30 40 W15G29 29.79F $$ PAZ047>061-062-071-302000- EASTERN PENNSYLVANIA CITY SKY/WX TMP DP RH WIND PRES REMARKS PHILADELPHIA PTSUNNY 57 28 33 W21G29 29.83F ALLENTOWN CLOUDY 52 27 38 W16G26 29.81S SCRANTON CLOUDY 47 27 45 W16G28 29.78S $$ CTZ002-004>006-009-010-012-RIZ004-006-007-MAZ004-011-015-302000- SOUTHERN NEW ENGLAND IN CT CITY SKY/WX TMP DP RH WIND PRES REMARKS BRADLEY INTL PTSUNNY 48 30 49 SW13 29.72F HARTFORD CLOUDY 46 30 53 SW12G17 29.74F DANBURY PTSUNNY 48 28 46 W13G20 29.75F WTRBRY/OXFORD CLOUDY 45 28 53 VRB5 29.75F BRIDGEPORT CLOUDY 43 33 68 SW13 29.76F MERIDEN CLOUDY 47 30 51 W7 29.74F NEW HAVEN PTSUNNY 43 32 65 SW9 29.76F CHESTER FAIR 43 32 65 SW8G17 29.76F GROTON CLOUDY 42 37 82 SW12 29.77F WILLIMANTIC MOSUNNY 44 31 60 SW8G16 29.74F IN RI CITY SKY/WX TMP DP RH WIND PRES REMARKS PROVIDENCE LGT RAIN 40 32 73 SW10G21 29.76F WCI 33 BLOCK ISLAND CLOUDY 39 34 81 SW14G20 29.78F WCI 31 WESTERLY CLOUDY 39 34 82 SW10 29.78F WCI 32 IN MA CITY SKY/WX TMP DP RH WIND PRES REMARKS BOSTON NOT AVBL WORCESTER CLOUDY 39 29 67 SW16 29.69F WCI 30 WESTFIELD CLOUDY 46 28 49 W15G22 29.71F PROVINCETOWN CLOUDY 39 30 70 S13 29.77F WCI 32 NANTUCKET CLOUDY 42 32 67 SW16 29.80F $$ ANZ330-335-338-340-345-350-353-355-302000- COASTAL MARINE OBSERVATIONS STATION/POSITION TIME SKY/WX TEMP WIND PRES VSBY WAVE AIR SEA DIR/SP/G HT/PER (UTC) (F) (DEG/KT/KT) (MB) (MI) (FT/S) NY HARB ENTRANCE 1850 41 39 190/ 10/ 12 1008.5 4/ 5 4S FIRE IS 1803 37 N/A 5/ 6 20S FIRE ISLAND 1750 39 1009.9 6/ 6 23SW MTP 1850 N/A 6/ 6 HUDSON CANYON NOT AVBL EXECUTION ROCKS NOT AVBL WESTERN LI SOUND NOT AVBL CENTRAL LI SOUND NOT AVBL EASTERN LI SOUND NOT AVBL ROBBINS REEF 1800 49 270/ 17/ 22 1007.3 $$ >>>>>>>>>>>>>>>>>>>>>>>>>>>> KEY <<<<<<<<<<<<<<<<<<<<<<<<<<< > < > SKY/WX - SKY CONDITION/PRESENT WEATHER < > TMP - TEMPERATURE IN FAHRENHEIT < > DP - DEWPOINT IN FAHRENHEIT < > RH - RELATIVE HUMIDITY IN PERCENT < > WIND - DIRECTION AND SPEED IN MPH < > PRES - MEAN SEA LEVEL PRESSURE IN INCHES OF HG < > WCI - WIND CHILL INDEX < > VSB - VISIBILITY IN MILES < > HX - HEAT INDEX < > TC - TEMPERATURE IN CELSIUS < > VRB - VARIABLE WIND DIRECTION < > < >>>>>>>>>>>>>>>>>>>>>>>>>>>> KEY <<<<<<<<<<<<<<<<<<<<<<<<<<<

USA.gov is the U.S. government's official web portal to all federal, state and local government web resources and services.